MENU

POPULAR MANGA

Mob Psycho 100 CHAPTER LIST
  • Mob Psycho 100

    Alternative : モブサイコ100 (Japanese); 灵能百分百 (Chinese); One Hundred Mob Psycho; OneHundred MobPsycho; Mob 100 (English)
  • Author(s) : One,
  • Status : Ongoing
  • Last updated : Dec-04-2017 21:20:02 PM
  • TransGroup :
  • View : 1,734,881
  • Genres : Action, Comedy, Psychological, School life, Shounen, Slice of life, Supernatural,
  • Rating :
  •   Mangakakalot.com rate : 4.94/ 5 - 79 votes

Mob Psycho 100 summary:

Kageyama Shigeo (a.k.a. "Mob") is a 8th grader with psychic abilities. He could bend spoons and lift objects with his mind from a young age, but he slowly began to withhold from using his abilities in public due to the negative attention he kept receiving. Now, the only thing he wants is to become friends with a girl in his class, Tsubomi. With his psychic "mentor" (who has no psychic powers), he continues his daily life, attempting to realize his purpose in life.
Maybe coming in the next issue
Mob Psycho 100 chapter 110
Mob Psycho 100 chapter 111
Chapter name View Time uploaded
Chapter 109 19,472 12-04 21:11
Chapter 101.1 12,158 10-07 16:52
Chapter 100.17 1,170 12-04 21:20
Chapter 100.16 767 12-04 21:18
Chapter 100.15 602 12-04 21:17
Chapter 100.14 516 12-04 21:15
Chapter 100.13 6,494 12-04 21:13
Chapter 100.12 4,368 12-04 21:13
Chapter 100.11 4,075 12-04 21:13
Chapter 100.10 2,603 12-04 21:13
Chapter 100.9 5,102 10-07 16:48
Chapter 100.8 4,170 10-07 16:47
Chapter 100.7 9,737 08-25 15:57
Chapter 100.6 16,308 07-31 01:47
Chapter 100.5 14,458 07-18 06:47
Chapter 100.4 14,993 07-03 04:50
Chapter 100.2 12,692 06-20 11:06
Chapter 100.1 20,990 06-09 15:34
Chapter 100 : Ch.99.4 17,043 05-31 04:13
Chapter 99.9 : Ch.99.3 10,355 05-30 21:23
Chapter 99.7 : Ch 99.1 Mob 13,602 05-08 21:16
Chapter 99.6 : Ch. 98.12 11,785 04-17 02:15
Chapter 99.5 : c.98k 11,295 04-07 04:45
Chapter 99.4 : Ch.98.10 11,233 04-01 01:15
Chapter 99.3 : ch98.9 10,746 03-26 21:22
Chapter 99.2 : Ch.98.8 9,703 03-26 21:22
Chapter 99.1 : Ch.98.7 11,730 03-06 01:50
Chapter 99 : Ch.98.6 14,538 02-26 23:20
Chapter 98.9 : c.98 Omakes 10,609 02-20 02:47
Chapter 98.8 : Ch.98.5 10,822 02-13 23:33
Chapter 98.7 : Ch.98.4 9,964 02-10 11:17
Chapter 98.6 : Ch.98.3 10,198 02-06 01:17
Chapter 98.5 : Ch.98.2 10,397 02-06 01:17
Chapter 98.3 : Ch.97.13 11,369 01-08 22:16
Chapter 98.2 : Ch.97.12 11,475 12-26 00:31
Chapter 98.1 : Ch.97.11 11,552 12-19 01:32
Chapter 98 : Ch.97.10 18,871 12-18 18:31
Chapter 97.9 10,369 12-03 00:52
Chapter 97.8 9,474 11-28 11:37
Chapter 97.7 7,922 11-19 13:52
Chapter 97.6 7,109 11-05 20:37
Chapter 97.5 6,970 10-28 22:42
Chapter 97.4 6,976 10-22 19:07
Chapter 97.3 : [Nerieru-Scans] 6,913 10-22 18:27
Chapter 97.2 6,729 10-08 09:11
Chapter 97.1 : Dimple is 7,583 10-02 11:11
Chapter 96.7 5,824 10-01 17:31
Chapter 96.6 5,893 09-10 06:06
Chapter 96.5 6,019 09-02 03:37
Chapter 96.4 6,093 08-27 15:49
Chapter 96.3 6,072 08-04 23:43
Chapter 96.2 5,983 07-28 22:43
Chapter 96.1 : Peace 6,263 07-22 02:18
Chapter 96 5,827 07-22 02:18
Chapter 95.4 5,776 07-14 19:53
Chapter 95.3 5,547 07-12 14:25
Chapter 95.2 6,094 07-02 21:48
Chapter 95.1 6,028 06-25 10:52
Chapter 94.2 6,366 06-04 16:31
Chapter 94.1 : Carried Away 6,836 05-22 23:38
Chapter 93.3 6,276 05-22 23:38
Chapter 93.2 6,488 05-22 23:38
Chapter 93.1 6,967 04-24 00:02
Chapter 92.3 6,548 04-09 13:36
Chapter 92.2 6,907 04-01 00:34
Chapter 91.6 : 90-11 13,808 02-22 03:39
Chapter 91.3 9,714 02-20 02:18
Chapter 91.2 10,254 02-12 01:25
Chapter 91.1 : 90-12 12,877 01-30 07:06
Chapter 91 : 90-10 12,322 01-22 06:12
Chapter 90.9 v2 9,723 01-22 06:12
Chapter 90.9 9,004 01-20 09:29
Chapter 90.8 9,344 01-20 09:29
Chapter 90.7 7,735 01-20 09:29
Chapter 90.6 8,000 01-20 09:29
Chapter 90.5 7,930 01-20 09:29
Chapter 90.4 7,599 01-20 09:29
Chapter 90.3 8,048 01-20 09:29
Chapter 90.2 8,330 01-20 09:29
Chapter 90 9,576 01-20 09:29
Chapter 89.4 6,938 01-20 09:29
Chapter 89.3 6,587 01-20 09:29
Chapter 89.2 6,949 01-20 09:29
Chapter 89.1 6,893 01-20 09:29
Chapter 88.3 6,795 01-20 09:29
Chapter 88.2 7,008 01-20 09:29
Chapter 88 7,092 01-20 09:29
Chapter 87.4 6,650 01-20 09:29
Chapter 87.3 6,602 01-20 09:29
Chapter 87.2 6,464 01-20 09:29
Chapter 87.1 6,886 01-20 09:29
Chapter 86.2 6,749 01-20 09:29
Chapter 86.1 6,743 01-20 09:29
Chapter 85.2 7,746 01-20 09:29
Chapter 84.2 7,039 01-20 09:29
Chapter 84.1 6,625 01-20 09:29
Chapter 83.2 6,755 01-20 09:29
Chapter 83.1 6,905 01-20 09:29
Chapter 82.2 6,850 01-20 09:29
Chapter 82 : Clash 7,385 01-20 09:29
Chapter 81.2 6,629 01-20 09:29
Chapter 81.1 6,956 01-20 09:29
Chapter 80.5 6,383 01-20 09:29
Chapter 80 : Inner Conflict 7,465 01-20 09:29
Chapter 79.2 6,732 01-20 09:29
Chapter 79.1 7,211 01-20 09:29
Chapter 78.5 : Read Online 6,435 01-20 09:29
Chapter 78.2 : Read Online 6,643 01-20 09:29
Chapter 78 : Gathering 6,983 01-20 09:29
Chapter 77.6 6,126 01-20 09:29
Chapter 77.5 6,580 01-20 09:29
Chapter 77 : Show It 7,249 01-20 09:29
Chapter 76 : Fire 7,113 01-20 09:29
Chapter 75 : Even So 6,910 01-20 09:29
Chapter 74.4 : Anthology 2 c.6 6,130 01-20 09:29
Chapter 74 : Forward 7,401 01-20 09:29
Chapter 73.5 : It's There 6,868 01-20 09:29
Chapter 73 : True Character 7,089 01-20 09:29
Chapter 72 : Finishing Off 7,036 01-20 09:29
Chapter 71.5 : Impulsive 7,035 01-20 09:29
Chapter 71 : Overhyped 7,016 01-20 09:29
Chapter 70 : The Lonely Whitey 7,024 01-20 09:29
Chapter 69 : He Doesn't Care 7,149 01-20 09:29
Chapter 68 7,281 01-20 09:29
Chapter 67.5 7,903 01-20 09:29
Chapter 67.3 : Rightness (3) 7,940 01-20 09:29
Chapter 67.2 : Rightness (2) 7,534 01-20 09:29
Chapter 67.1 : Rightness (1) 7,496 01-20 09:29
Chapter 66 : Voice 7,505 01-20 09:29
Chapter 65.5 6,715 01-20 09:29
Chapter 65.2 6,815 01-20 09:29
Chapter 65.1 : Friction 7,503 01-20 09:29
Chapter 65 7,648 01-20 09:29
Chapter 64.2 6,980 01-20 09:29
Chapter 64.1 : World 7,184 01-20 09:29
Chapter 63.3 7,113 01-20 09:29
Chapter 63.2 : Last Resort (2) 7,270 01-20 09:29
Chapter 63.1 : Last Resort 7,068 01-20 09:29
Chapter 62 : Morphing 7,172 01-20 09:29
Chapter 61.2 7,106 01-20 09:29
Chapter 61.1 : Evil Spirit 7,213 01-20 09:29
Chapter 60.5 6,700 01-20 09:29
Chapter 60 : True Identity 7,274 01-20 09:29
Chapter 59 : Big Mouth 6,780 01-20 09:29
Chapter 58.5 6,648 01-20 09:29
Chapter 58 : Creeping Danger 7,336 01-20 09:29
Chapter 57 : Roots 7,472 01-20 09:29
Chapter 56 : Solo Mission 7,363 01-20 09:29
Chapter 55 : Don't Know 7,703 01-20 09:29
Chapter 53 : Urban Legend 8,119 01-20 09:29
Chapter 52.5 7,642 01-20 09:29
Chapter 51.5 8,190 01-20 09:29
Chapter 50 : No Changes 8,701 01-20 09:29
Chapter 49 : Putting an End 6,997 01-20 09:29
Chapter 48 : Overwhelming 6,013 01-20 09:29
Chapter 47 : Rental 5,670 01-20 09:29
Chapter 46 : Master 5,894 01-20 09:29
Chapter 45 : Leader 4,455 01-20 09:29
Chapter 44 : Respect 4,313 01-20 09:29
Chapter 43 : Evil Aura 4,361 01-20 09:29
Chapter 42 : Phone Call 4,155 01-20 09:29
Chapter 41 : Who 3,944 01-20 09:29
Chapter 40 : Pyrokinetic 4,142 01-20 09:29
Chapter 39 : The Awakened 3,943 01-20 09:29
Chapter 37 : Team 3,965 01-20 09:29
Chapter 36 : Ways of Usage 3,755 01-20 09:29
Chapter 35 : Up Up 4,027 01-20 09:29
Chapter 34 : Claw 4,247 01-20 09:29
Chapter 33 : Ura vs Ura 4,390 01-20 09:29
Chapter 32 : Will to Destroy 3,815 01-20 09:29
Chapter 31 : Mature 3,800 01-20 09:29
Chapter 30 : Brotherly Love 4,104 01-20 09:29
Chapter 28 : Off-Tune 3,671 01-20 09:29
Chapter 27 : Discord 3,643 01-20 09:29
Chapter 26 : In High Spirits 3,913 01-20 09:29
Chapter 25 : O X Relationship 4,160 01-20 09:29
Chapter 24 : Hated 4,069 01-20 09:29
Chapter 22 : Awakening Lab 4,194 01-20 09:29
Chapter 20 : Student Council 4,163 01-20 09:29
Chapter 19 : Conclusion 4,318 01-20 09:29
Chapter 18 : Unidentifiable 4,272 01-20 09:29
Chapter 17.1 : The Fake Pot 4,332 01-20 09:29
Chapter 16 : Ochimusha 4,344 01-20 09:29
Chapter 14 : Same Kind 4,373 01-20 09:29
Chapter 11 : Idiot-Only Event 4,220 01-20 09:28
Chapter 10 : The Gifted One 4,303 01-20 09:28
Chapter 8 : Break Down 4,947 01-20 09:28
Chapter 7 : Sheeple 4,854 01-20 09:28
Chapter 6 : The Invitation 4,792 01-20 09:28
Chapter 4 : For Oneself 5,433 01-20 09:28
Chapter 2 : A Naive Question 8,789 01-20 09:28